Corpus Christi, TX

1:43 PM CST on February 22, 2018 (GMT -0600)
Corpus Christi International

Weather History for KCRP - February, 2013

Change the Weather History Date:

Friday, February 15, 2013

  Actual Average Record
Temperature  
Mean Temperature 61 °F 60 °F  
Max Temperature 74 °F 70 °F 91 °F (1990)
Min Temperature 47 °F 51 °F 25 °F (1895)
Degree Days  
Heating Degree Days 4 6  
Month to date heating degree days 24 106  
Since 1 July heating degree days 407 733  
Cooling Degree Days 0 2  
Month to date cooling degree days 46 23  
Year to date cooling degree days 113 53  
Growing Degree Days 10 (Base 50)    
Moisture  
Dew Point 46 °F    
Average Humidity 62    
Maximum Humidity 86    
Minimum Humidity 37    
Precipitation  
Precipitation 0.00 in 0.08 in 1.14 in (1983)
Month to date precipitation 0.43 0.97  
Year to date precipitation 1.68 2.51  
Snow  
Snow 0.00 in - - ()
Month to date snowfall 0.0  
Since 1 July snowfall 0.0  
Snow Depth 0.00 in    
Sea Level Pressure  
Sea Level Pressure 30.16 in    
Wind  
Wind Speed 10 mph (East)    
Max Wind Speed 28 mph    
Max Gust Speed 32 mph    
Visibility 10 miles    
Events      
T = Trace of Precipitation, MM = Missing Value Source: NWS Daily Summary

Daily Weather History Graph

Daily Weather History Graph

Search for Another Location

Airport or City:

Trip Planner

Search our weather history database for the weather conditions in past years. The results will help you decide how hot, cold, wet, or windy it might be!

Date:

Astronomy

Feb. 15, 2013 Rise Set
Actual Time 7:07 AM CST 6:21 PM CST
Civil Twilight 6:43 AM CST 6:45 PM CST
Nautical Twilight 6:15 AM CST 7:12 PM CST
Astronomical Twilight 5:48 AM CST 7:40 PM CST
Moon 10:18 AM CST (2/15) 11:47 PM CST (2/15)
Length of Visible Light 12h 02m
Length of Day
11h 14m
Waxing Crescent, 30% of the Moon is Illuminated
Feb 15
Waxing Crescent
Feb 17
First Quarter
Feb 25
Full
Mar 4
Last Quarter
Mar 11
New

Hourly Weather History & Observations

Time (CST) Temp. Dew Point Humidity Pressure Visibility Wind Dir Wind Speed Gust Speed Precip Events Conditions
12:51 AM 54.0 °F 45.0 °F 72% 30.06 in 10.0 mi ESE 6.9 mph - N/A   Clear
1:51 AM 54.0 °F 46.9 °F 77% 30.07 in 10.0 mi East 8.1 mph - N/A   Clear
2:51 AM 48.9 °F 44.1 °F 83% 30.08 in 10.0 mi ESE 3.5 mph - N/A   Clear
3:51 AM 53.1 °F 46.9 °F 80% 30.08 in 10.0 mi East 6.9 mph - N/A   Clear
4:51 AM 55.9 °F 48.9 °F 77% 30.08 in 10.0 mi ENE 8.1 mph - N/A   Clear
5:51 AM 46.9 °F 42.1 °F 83% 30.09 in 10.0 mi West 3.5 mph - N/A   Clear
6:51 AM 46.9 °F 42.1 °F 83% 30.12 in 10.0 mi WNW 4.6 mph - N/A   Clear
7:51 AM 51.1 °F 46.0 °F 83% 30.14 in 10.0 mi Calm Calm - N/A   Clear
8:51 AM 63.0 °F 53.1 °F 70% 30.17 in 10.0 mi Calm Calm - N/A   Clear
9:51 AM 68.0 °F 50.0 °F 52% 30.17 in 10.0 mi East 4.6 mph - N/A   Clear
10:51 AM 71.1 °F 52.0 °F 51% 30.18 in 10.0 mi East 10.4 mph - N/A   Clear
11:51 AM 72.0 °F 48.0 °F 43% 30.17 in 10.0 mi East 9.2 mph - N/A   Partly Cloudy
12:51 PM 73.4 °F 48.2 °F 41% 30.15 in 10.0 mi ENE 11.5 mph - N/A   Scattered Clouds
1:51 PM 73.4 °F 51.8 °F 47% 30.14 in 10.0 mi East 18.4 mph 23.0 mph N/A   Scattered Clouds
2:51 PM 73.4 °F 50.0 °F 44% 30.12 in 10.0 mi East 18.4 mph 26.5 mph N/A   Scattered Clouds
3:51 PM 71.1 °F 50.0 °F 47% 30.11 in 10.0 mi East 19.6 mph 25.3 mph N/A   Partly Cloudy
4:51 PM 69.1 °F 48.9 °F 49% 30.13 in 10.0 mi East 19.6 mph - N/A   Partly Cloudy
5:51 PM 66.0 °F 39.9 °F 38% 30.14 in 10.0 mi East 16.1 mph - N/A   Partly Cloudy
6:51 PM 63.0 °F 39.9 °F 43% 30.16 in 10.0 mi East 9.2 mph - N/A   Partly Cloudy
7:51 PM 61.0 °F 44.1 °F 54% 30.19 in 10.0 mi East 8.1 mph - N/A   Partly Cloudy
8:51 PM 60.1 °F 46.0 °F 60% 30.22 in 10.0 mi East 6.9 mph - N/A   Mostly Cloudy
9:51 PM 62.1 °F 46.0 °F 56% 30.25 in 10.0 mi East 4.6 mph - N/A   Mostly Cloudy
10:51 PM 57.9 °F 41.0 °F 53% 30.30 in 10.0 mi NNE 26.5 mph - N/A   Mostly Cloudy
11:51 PM 57.0 °F 41.0 °F 55% 30.32 in 10.0 mi NNE 19.6 mph - N/A   Scattered Clouds